EW7678 Weather Reports


Display with metric or nautical units.
time (UTC)temp
F
wind
direction
speed
MPH
gust
MPH
rain 1hr
in
rain 24hr
in
rain mn
in
humidity
%
barometer
mb
20260902004551 77 131 0.0 0.0 0.00 0.00 0.00 65 1001.3
20260902003050 78 131 0.0 0.0 0.00 0.00 0.00 62 1001.2
20260902001549 81 131 0.0 0.0 0.00 0.00 0.00 54 1001.4
20260902000054 83 131 0.0 0.0 0.00 0.00 0.00 47 1001.5
20260901234607 85 131 0.0 0.0 0.00 0.00 0.00 39 1001.6
20260901233044 85 132 0.0 0.0 0.00 0.00 0.00 35 1001.7
20260901231549 85 144 0.0 1.0 0.00 0.00 0.00 37 1001.9
20260901224539 88 133 0.0 3.0 0.00 0.00 0.00 32 1002.3
20260901223056 87 6 0.0 3.0 0.00 0.00 0.00 32 1002.5
20260901221537 87 236 1.0 4.0 0.00 0.00 0.00 31 1002.8
20260901220035 87 61 0.0 6.0 0.00 0.00 0.00 34 1003.0
20260901214528 86 146 0.0 2.0 0.00 0.00 0.00 35 1003.4
20260901213026 86 28 0.0 3.0 0.00 0.00 0.00 34 1003.6
20260901211531 86 153 0.0 2.0 0.00 0.00 0.00 35 1003.8
20260901210020 85 133 0.0 5.0 0.00 0.00 0.00 36 1004.0
20260901204518 85 88 0.0 2.0 0.00 0.00 0.00 37 1004.2
20260901203022 84 129 0.0 3.0 0.00 0.00 0.00 40 1004.5
20260901201511 83 285 1.0 3.0 0.00 0.00 0.00 39 1004.7
20260901200018 82 108 0.0 2.0 0.00 0.00 0.00 46 1005.0
20260901194503 81 103 0.0 2.0 0.00 0.00 0.00 46 1005.4
20260901193059 80 148 1.0 3.0 0.00 0.00 0.00 46 1005.6
20260901191556 79 117 0.0 2.0 0.00 0.00 0.00 46 1005.9
20260901190105 77 112 0.0 3.0 0.00 0.00 0.00 52 1006.2
20260901184548 77 280 0.0 2.0 0.00 0.00 0.00 54 1006.6
20260901183048 76 103 0.0 2.0 0.00 0.00 0.00 54 1006.8
20260901181549 75 360 0.0 2.0 0.00 0.00 0.00 54 1007.0
20260901180037 74 105 0.0 2.0 0.00 0.00 0.00 57 1007.3
20260901174536 73 98 0.0 5.0 0.00 0.00 0.00 57 1007.4
20260901173031 72 65 0.0 1.0 0.00 0.00 0.00 61 1007.7
20260901171529 71 185 0.0 2.0 0.00 0.00 0.00 64 1007.8
20260901170024 69 300 0.0 0.0 0.00 0.00 0.00 67 1007.9
20260901164523 68 24 0.0 1.0 0.00 0.00 0.00 71 1008.1
20260901163017 67 53 0.0 1.0 0.00 0.00 0.00 75 1008.3
20260901161514 66 188 0.0 1.0 0.00 0.00 0.00 77 1008.5
20260901160009 64 279 0.0 0.0 0.00 0.00 0.00 87 1008.7
20260901154504 62 277 0.0 0.0 0.00 0.00 0.00 96 1008.9
20260901153002 60 276 0.0 0.0 0.00 0.00 0.00 97 1009.0
20260901151557 57 276 0.0 0.0 0.00 0.00 0.00 98 1009.1
20260901150054 54 276 0.0 0.0 0.00 0.00 0.00 97 1009.1
20260901144553 53 276 0.0 0.0 0.00 0.00 0.00 97 1009.2
20260901143052 51 276 0.0 0.0 0.00 0.00 0.00 97 1009.2
20260901141558 50 276 0.0 0.0 0.00 0.00 0.00 97 1009.1
20260901140053 50 276 0.0 0.0 0.00 0.00 0.00 97 1009.1
20260901134550 50 276 0.0 0.0 0.00 0.00 0.00 96 1009.0
20260901133049 50 277 0.0 0.0 0.00 0.00 0.00 96 1009.0
20260901131548 50 277 0.0 0.0 0.00 0.00 0.00 96 1008.9
20260901130047 50 276 0.0 0.0 0.00 0.00 0.00 96 1008.9
20260901124553 51 277 0.0 0.0 0.00 0.00 0.00 96 1008.9
20260901123045 51 276 0.0 0.0 0.00 0.00 0.00 96 1008.9
20260901121556 51 277 0.0 0.0 0.00 0.00 0.00 96 1009.0
20260901120040 52 276 0.0 0.0 0.00 0.00 0.00 96 1009.1
20260901114539 52 276 0.0 0.0 0.00 0.00 0.00 96 1009.0
20260901113041 52 276 0.0 0.0 0.00 0.00 0.00 96 1008.9
20260901111540 53 276 0.0 0.0 0.00 0.00 0.00 96 1009.1
20260901110042 53 276 0.0 0.0 0.00 0.00 0.00 96 1009.0
20260901104534 53 277 0.0 0.0 0.00 0.00 0.00 96 1009.0
20260901103033 53 277 0.0 0.0 0.00 0.00 0.00 96 1008.9
20260901101531 53 277 0.0 0.0 0.00 0.00 0.00 96 1008.9
20260901100030 53 276 0.0 0.0 0.00 0.00 0.00 96 1009.1
20260901094530 53 276 0.0 0.0 0.00 0.00 0.00 96 1009.1
20260901093028 53 276 0.0 0.0 0.00 0.00 0.00 96 1009.2
20260901091535 53 277 0.0 0.0 0.00 0.00 0.00 95 1009.1
20260901090026 53 277 0.0 0.0 0.00 0.00 0.00 95 1009.2
20260901084524 53 276 0.0 0.0 0.00 0.00 0.00 95 1009.1
20260901083022 53 277 0.0 1.0 0.00 0.00 0.00 95 1009.2
20260901081520 54 276 0.0 0.0 0.00 0.00 0.00 95 1009.2
20260901080021 54 276 0.0 0.0 0.00 0.00 0.00 95 1009.3
20260901074517 54 276 0.0 0.0 0.00 0.00 0.00 94 1009.3
20260901073022 54 276 0.0 0.0 0.00 0.00 0.00 94 1009.4
20260901071514 55 277 0.0 0.0 0.00 0.00 0.00 94 1009.3
20260901070022 55 277 0.0 0.0 0.00 0.00 0.00 94 1009.3
20260901064512 56 276 0.0 1.0 0.00 0.00 0.00 94 1009.3
20260901063008 56 276 0.0 0.0 0.00 0.00 0.00 94 1009.4
20260901061509 56 276 0.0 0.0 0.00 0.00 0.00 93 1009.4
20260901060008 56 276 0.0 0.0 0.00 0.00 0.00 93 1009.6
20260901054507 57 276 0.0 0.0 0.00 0.00 0.00 92 1009.6
20260901053006 57 276 0.0 0.0 0.00 0.00 0.00 92 1009.4
20260901051506 58 276 0.0 0.0 0.00 0.00 0.00 92 1009.6
20260901050006 58 276 0.0 0.0 0.00 0.00 0.00 92 1009.5
20260901044506 58 276 0.0 0.0 0.00 0.00 0.00 92 1009.6
20260901043006 59 276 0.0 0.0 0.00 0.00 0.00 91 1009.6
20260901041505 59 276 0.0 0.0 0.00 0.00 0.00 89 1009.6
20260901040004 61 320 0.0 0.0 0.00 0.00 0.00 89 1009.6
20260901034509 61 319 0.0 0.0 0.00 0.00 0.00 88 1009.6
20260901033003 62 320 0.0 0.0 0.00 0.00 0.00 88 1009.5
20260901031502 63 320 0.0 0.0 0.00 0.00 0.00 86 1009.5
20260901030001 64 320 0.0 0.0 0.00 0.00 0.00 84 1009.3
20260901024501 65 319 0.0 0.0 0.00 0.00 0.00 81 1009.1
20260901023001 67 319 0.0 0.0 0.00 0.00 0.00 78 1009.1
20260901021606 68 320 0.0 0.0 0.00 0.00 0.00 72 1009.1
20260901020058 69 319 0.0 0.0 0.00 0.00 0.00 70 1009.3
20260901014603 71 319 0.0 0.0 0.00 0.00 0.00 68 1009.4
20260901013057 72 320 0.0 0.0 0.00 0.00 0.00 62 1009.4
20260901011600 73 320 0.0 0.0 0.00 0.00 0.00 60 1009.5
20260901010058 75 320 0.0 0.0 0.00 0.00 0.00 56 1009.7